Location: Chillicothe
(39.7950°N, 93.5520°W)
Time: 10:06:01
(UTC-06:00)

Vanguard 3 - Pass Details

Date: 23 October 2019
Orbit: 508 x 3263 km, 33.3° (Epoch: 14 November)

Event Time Altitude Azimuth Distance (km) Brightness Sun altitude
Rises 00:15:23 0° 239° (WSW) 3,063 - -59.9°
Reaches altitude 10° 00:18:18 10° 226° (SW) 1,918 - -60.1°
Maximum altitude 00:21:42 25° 169° (S) 1,079 - -60.4°
Drops below altitude 10° 00:24:46 10° 112° (ESE) 1,713 - -60.5°
Sets 00:27:12 0° 98° (E) 2,653 - -60.7°
